K2ATL Weather Reports


time (UTC)temp
C
wind
direction
speed
KPH
gust
KPH
rain 1hr
cm
rain 24hr
cm
rain mn
cm
humidity
%
barometer
mb
20260506033512 18 141 4.8 8.0 0.00 0.00 0.00 52 1099.3
20260506033009 19 131 4.8 11.3 0.00 0.00 0.00 52 1099.3
20260506032506 18 130 4.8 9.7 0.00 0.00 0.00 52 1099.2
20260506032002 19 162 6.4 9.7 0.00 0.00 0.00 52 1099.6
20260506031501 18 130 6.4 11.3 0.00 0.00 0.00 52 1099.3
20260506030957 18 157 1.6 9.7 0.00 0.00 0.00 52 1099.6
20260506030455 18 149 3.2 8.0 0.00 0.00 0.00 51 1099.4
20260506025952 18 125 3.2 4.8 0.00 0.00 0.00 51 1099.3
20260506025449 18 139 1.6 11.3 0.00 0.00 0.00 51 1099.3
20260506024945 19 120 3.2 11.3 0.00 0.00 0.00 51 1099.3
20260506024442 19 164 6.4 11.3 0.00 0.00 0.00 51 1099.5
20260506023938 18 135 4.8 9.7 0.00 0.00 0.00 51 1099.3
20260506023435 18 127 1.6 8.0 0.00 0.00 0.00 51 1099.3
20260506022932 18 128 4.8 4.8 0.00 0.00 0.00 51 1099.1
20260506022430 18 104 1.6 8.0 0.00 0.00 0.00 51 1098.9
20260506021927 18 133 4.8 4.8 0.00 0.00 0.00 52 1099.0
20260506021424 18 137 4.8 17.7 0.00 0.00 0.00 52 1099.2
20260506020921 18 144 8.0 14.5 0.00 0.00 0.00 51 1099.1
20260506020419 19 126 4.8 9.7 0.00 0.00 0.00 51 1099.1
20260506015916 19 124 4.8 9.7 0.00 0.00 0.00 51 1099.1
20260506015414 19 135 8.0 12.9 0.00 0.00 0.00 50 1099.1
20260506014910 19 144 4.8 11.3 0.00 0.00 0.00 50 1099.0
20260506014407 19 122 6.4 14.5 0.00 0.00 0.00 50 1099.1
20260506013904 19 130 3.2 8.0 0.00 0.00 0.00 50 1099.1
20260506013402 19 135 4.8 8.0 0.00 0.00 0.00 50 1099.2
20260506012857 19 127 4.8 8.0 0.00 0.00 0.00 49 1098.9
20260506012354 19 135 3.2 9.7 0.00 0.00 0.00 50 1099.0
20260506011852 19 130 3.2 8.0 0.00 0.00 0.00 50 1098.9
20260506011349 19 116 1.6 3.2 0.00 0.00 0.00 50 1098.9
20260506010846 18 72 1.6 3.2 0.00 0.00 0.00 52 1098.9
20260506010344 18 88 1.6 4.8 0.00 0.00 0.00 52 1098.6
20260506005840 18 81 1.6 3.2 0.00 0.00 0.00 52 1098.6
20260506005337 18 130 1.6 4.8 0.00 0.00 0.00 52 1098.6
20260506004833 18 131 1.6 4.8 0.00 0.00 0.00 51 1098.6
20260506004331 18 131 4.8 8.0 0.00 0.00 0.00 51 1098.7
20260506003827 19 134 4.8 8.0 0.00 0.00 0.00 51 1098.7
20260506003323 19 132 4.8 9.7 0.00 0.00 0.00 50 1098.7
20260506002820 19 143 3.2 8.0 0.00 0.00 0.00 50 1098.8
20260506002316 19 119 3.2 9.7 0.00 0.00 0.00 50 1098.8
20260506001812 19 131 4.8 8.0 0.00 0.00 0.00 50 1098.7
20260506001309 19 137 3.2 9.7 0.00 0.00 0.00 50 1098.8
20260506000806 20 136 4.8 8.0 0.00 0.00 0.00 50 1098.6
20260506000304 20 119 4.8 8.0 0.00 0.00 0.00 49 1098.7
20260505235800 20 151 1.6 8.0 0.00 0.00 0.00 49 1098.6
20260505235258 20 128 1.6 8.0 0.00 0.00 0.00 49 1098.7
20260505234755 20 142 3.2 4.8 0.00 0.00 0.00 48 1098.6
20260505234253 20 141 3.2 4.8 0.00 0.00 0.00 48 1098.6
20260505233749 20 136 3.2 8.0 0.00 0.00 0.00 48 1098.6
20260505233247 20 129 1.6 8.0 0.00 0.00 0.00 49 1098.7
20260505232744 20 72 0.0 1.6 0.00 0.00 0.00 51 1098.4
20260505232241 20 149 1.6 3.2 0.00 0.00 0.00 50 1098.3
20260505231738 20 146 1.6 3.2 0.00 0.00 0.00 49 1098.4
20260505231237 20 64 0.0 1.6 0.00 0.00 0.00 49 1098.3
20260505230735 20 86 1.6 3.2 0.00 0.00 0.00 48 1098.5
20260505230231 21 133 1.6 3.2 0.00 0.00 0.00 45 1099.0
20260505225728 21 133 1.6 3.2 0.00 0.00 0.00 46 1099.0
20260505225225 21 117 0.0 1.6 0.00 0.00 0.00 46 1099.1
20260505224720 21 54 1.6 3.2 0.00 0.00 0.00 44 1098.7
20260505224218 21 146 1.6 3.2 0.00 0.00 0.00 45 1098.7
20260505223715 21 141 3.2 3.2 0.00 0.00 0.00 44 1098.8
20260505223211 21 130 1.6 3.2 0.00 0.00 0.00 44 1098.9
20260505222707 21 133 4.8 4.8 0.00 0.00 0.00 43 1099.1
20260505222203 21 128 3.2 8.0 0.00 0.00 0.00 43 1099.2
20260505221701 21 134 3.2 12.9 0.00 0.00 0.00 43 1099.1
20260505221157 21 127 4.8 12.9 0.00 0.00 0.00 43 1099.2
20260505220655 21 145 4.8 8.0 0.00 0.00 0.00 42 1099.2
20260505220152 21 146 3.2 8.0 0.00 0.00 0.00 42 1099.3
20260505215650 21 126 3.2 11.3 0.00 0.00 0.00 42 1099.2
20260505215148 22 69 4.8 11.3 0.00 0.00 0.00 41 1098.9
20260505214645 22 174 8.0 12.9 0.00 0.00 0.00 40 1099.1
20260505214142 22 150 4.8 8.0 0.00 0.00 0.00 41 1098.8
20260505213640 22 132 3.2 14.5 0.00 0.00 0.00 41 1099.0
20260505213136 22 143 4.8 14.5 0.00 0.00 0.00 40 1098.7
20260505212632 22 137 4.8 9.7 0.00 0.00 0.00 39 1098.7
20260505212130 22 132 4.8 8.0 0.00 0.00 0.00 40 1098.8
20260505211627 22 173 4.8 8.0 0.00 0.00 0.00 39 1098.8
20260505211124 22 142 1.6 12.9 0.00 0.00 0.00 38 1098.9
20260505210620 23 204 6.4 20.9 0.00 0.00 0.00 37 1098.9
20260505210117 24 132 8.0 16.1 0.00 0.00 0.00 34 1099.1
20260505205615 23 52 9.7 17.7 0.00 0.00 0.00 36 1099.1
20260505205113 25 147 11.3 17.7 0.00 0.00 0.00 37 1099.1
20260505204610 25 136 12.9 16.1 0.00 0.00 0.00 37 1099.0
20260505204107 25 72 4.8 12.9 0.00 0.00 0.00 33 1098.9
20260505203604 26 133 3.2 9.7 0.00 0.00 0.00 35 1099.0
20260505203101 25 147 8.0 17.7 0.00 0.00 0.00 35 1099.0
20260505202556 26 169 3.2 9.7 0.00 0.00 0.00 36 1099.1
20260505202053 25 147 1.6 8.0 0.00 0.00 0.00 35 1099.1
20260505201550 23 124 1.6 8.0 0.00 0.00 0.00 40 1098.9
20260505201048 25 127 4.8 20.9 0.00 0.00 0.00 38 1099.0
20260505200545 25 156 8.0 12.9 0.00 0.00 0.00 35 1099.1
20260505200042 25 131 3.2 8.0 0.00 0.00 0.00 37 1099.1
20260505195538 25 138 1.6 14.5 0.00 0.00 0.00 36 1099.2
20260505195036 25 155 1.6 12.9 0.00 0.00 0.00 36 1099.6
20260505194533 24 22 8.0 17.7 0.00 0.00 0.00 35 1099.3
20260505194028 23 153 8.0 17.7 0.00 0.00 0.00 36 1099.4
20260505193525 23 157 9.7 29.0 0.00 0.00 0.00 37 1099.3
20260505193023 24 156 8.0 16.1 0.00 0.00 0.00 37 1099.4
20260505192521 24 143 11.3 17.7 0.00 0.00 0.00 37 1099.5
20260505192018 25 12 8.0 16.1 0.00 0.00 0.00 36 1099.7
20260505191516 24 222 3.2 17.7 0.00 0.00 0.00 37 1099.9
20260505191014 23 139 3.2 8.0 0.00 0.00 0.00 37 1099.7
20260505190508 23 202 8.0 20.9 0.00 0.00 0.00 40 1100.1
20260505190004 22 149 9.7 20.9 0.00 0.00 0.00 41 1099.9
20260505185502 24 153 11.3 16.1 0.00 0.00 0.00 37 1100.2
20260505184957 23 138 4.8 12.9 0.00 0.00 0.00 37 1100.3
20260505184455 24 141 12.9 20.9 0.00 0.00 0.00 36 1100.3
20260505183951 24 128 12.9 17.7 0.00 0.00 0.00 39 1100.0
20260505183449 25 125 6.4 16.1 0.00 0.00 0.00 39 1100.0
20260505182944 23 289 0.0 4.8 0.00 0.00 0.00 40 1100.0
20260505182442 23 159 3.2 8.0 0.00 0.00 0.00 41 1100.0
20260505181937 23 155 6.4 16.1 0.00 0.00 0.00 42 1100.2
20260505181436 24 145 1.6 12.9 0.00 0.00 0.00 39 1100.3
20260505180932 23 144 8.0 16.1 0.00 0.00 0.00 40 1100.5
20260505180428 23 123 1.6 25.7 0.00 0.00 0.00 42 1100.3
20260505175925 22 117 11.3 25.7 0.00 0.00 0.00 42 1100.7
20260505175422 22 74 0.0 17.7 0.00 0.00 0.00 40 1100.7
20260505174918 22 126 8.0 14.5 0.00 0.00 0.00 39 1101.0
20260505174416 22 127 4.8 16.1 0.00 0.00 0.00 40 1100.7
20260505173912 22 111 12.9 20.9 0.00 0.00 0.00 40 1100.9
20260505173408 21 170 4.8 16.1 0.00 0.00 0.00 45 1101.1
20260505172905 22 135 11.3 20.9 0.00 0.00 0.00 42 1101.0
20260505172403 21 134 9.7 17.7 0.00 0.00 0.00 42 1101.2
20260505171902 21 134 9.7 22.5 0.00 0.00 0.00 42 1100.8
20260505171359 21 213 9.7 24.1 0.00 0.00 0.00 41 1101.2
20260505170856 21 155 8.0 25.7 0.00 0.00 0.00 41 1101.4
20260505170353 22 147 9.7 17.7 0.00 0.00 0.00 41 1101.5
20260505165848 22 170 8.0 11.3 0.00 0.00 0.00 40 1101.2
20260505165344 22 158 4.8 17.7 0.00 0.00 0.00 42 1101.2
20260505164840 21 166 3.2 4.8 0.00 0.00 0.00 38 1101.1
20260505164337 21 120 4.8 9.7 0.00 0.00 0.00 41 1101.0
20260505163835 21 140 4.8 14.5 0.00 0.00 0.00 42 1100.9
20260505163334 20 130 3.2 11.3 0.00 0.00 0.00 41 1101.1
20260505162832 20 160 17.7 24.1 0.00 0.00 0.00 41 1100.9
20260505162327 20 158 11.3 22.5 0.00 0.00 0.00 42 1101.1
20260505161825 20 150 9.7 12.9 0.00 0.00 0.00 43 1101.2
20260505161322 20 141 14.5 20.9 0.00 0.00 0.00 42 1101.5
20260505160819 20 134 17.7 24.1 0.00 0.00 0.00 42 1101.4
20260505160317 20 184 14.5 16.1 0.00 0.00 0.00 44 1101.7
20260505153256 20 161 3.2 14.5 0.00 0.00 0.00 47 1101.5
20260505152753 20 148 11.3 17.7 0.00 0.00 0.00 46 1101.5
20260505152249 18 127 1.6 16.1 0.00 0.00 0.00 53 1101.5
20260505151743 19 157 11.3 22.5 0.00 0.00 0.00 52 1101.4
20260505151241 18 154 4.8 20.9 0.00 0.00 0.00 53 1101.6
20260505150739 19 56 4.8 16.1 0.00 0.00 0.00 54 1101.7
20260505150236 18 152 3.2 12.9 0.00 0.00 0.00 54 1101.5
20260505140206 15 220 1.6 4.8 0.00 0.00 0.00 60 1101.6
20260505130129 16 143 1.6 3.2 0.00 0.00 0.00 55 1100.6
20260505124619 15 136 3.2 4.8 0.00 0.00 0.00 56 1100.3
20260505124115 15 144 1.6 3.2 0.00 0.00 0.00 57 1100.6
20260505123611 15 133 3.2 3.2 0.00 0.00 0.00 58 1100.6
20260505123108 15 142 0.0 3.2 0.00 0.00 0.00 58 1100.2
20260505122605 14 138 3.2 3.2 0.00 0.00 0.00 59 1100.4
20260505122102 15 119 1.6 4.8 0.00 0.00 0.00 59 1100.4
20260505121558 14 51 1.6 3.2 0.00 0.00 0.00 59 1100.4
20260505121055 14 137 1.6 3.2 0.00 0.00 0.00 59 1100.4
20260505120552 13 140 0.0 1.6 0.00 0.00 0.00 59 1100.4
20260505120047 14 138 3.2 4.8 0.00 0.00 0.00 59 1100.3
20260505115542 14 138 3.2 4.8 0.00 0.00 0.00 60 1100.3
20260505115040 13 131 1.6 3.2 0.00 0.00 0.00 59 1100.4
20260505114537 14 139 3.2 9.7 0.00 0.00 0.00 59 1100.3
20260505114033 13 137 3.2 4.8 0.00 0.00 0.00 59 1100.2
20260505113529 14 140 3.2 4.8 0.00 0.00 0.00 59 1100.1
20260505113026 14 139 3.2 4.8 0.00 0.00 0.00 58 1100.1
20260505112523 14 145 3.2 8.0 0.00 0.00 0.00 58 1100.0
20260505112021 14 143 3.2 4.8 0.00 0.00 0.00 58 1099.9
20260505111520 14 144 4.8 8.0 0.00 0.00 0.00 57 1099.7
20260505111016 14 138 3.2 4.8 0.00 0.00 0.00 56 1099.7
20260505110513 14 139 4.8 8.0 0.00 0.00 0.00 56 1099.7
20260505101945 15 69 4.8 9.7 0.00 0.00 0.00 54 1099.2
20260505101444 15 139 3.2 3.2 0.00 0.00 0.00 55 1099.5
20260505100940 15 71 1.6 4.8 0.00 0.00 0.00 55 1099.4
20260505100437 15 54 4.8 4.8 0.00 0.00 0.00 54 1099.4
20260505095933 15 90 1.6 4.8 0.00 0.00 0.00 54 1099.4
20260505095430 15 43 4.8 8.0 0.00 0.00 0.00 53 1099.5
20260505094926 15 131 1.6 4.8 0.00 0.00 0.00 54 1099.6
20260505094423 15 153 4.8 8.0 0.00 0.00 0.00 55 1099.4
20260505093919 15 60 3.2 4.8 0.00 0.00 0.00 54 1099.6
20260505093416 15 104 3.2 4.8 0.00 0.00 0.00 55 1099.9
20260505092913 15 131 3.2 4.8 0.00 0.00 0.00 55 1099.6
20260505092411 15 32 1.6 4.8 0.00 0.00 0.00 55 1099.6
20260505091908 15 137 4.8 8.0 0.00 0.00 0.00 54 1099.5
20260505091406 15 134 4.8 8.0 0.00 0.00 0.00 55 1099.7
20260505090904 15 49 3.2 8.0 0.00 0.00 0.00 56 1099.6
20260505090402 15 138 4.8 8.0 0.00 0.00 0.00 56 1099.7
20260505085859 15 120 1.6 8.0 0.00 0.00 0.00 55 1099.9
20260505085357 15 144 3.2 9.7 0.00 0.00 0.00 55 1099.7
20260505084855 15 140 8.0 9.7 0.00 0.00 0.00 55 1099.7
20260505084353 15 145 1.6 4.8 0.00 0.00 0.00 55 1099.7
20260505083850 15 142 6.4 9.7 0.00 0.00 0.00 55 1100.0
20260505083347 15 125 3.2 9.7 0.00 0.00 0.00 54 1100.0
20260505082844 15 139 6.4 8.0 0.00 0.00 0.00 54 1099.7
20260505082339 15 129 4.8 11.3 0.00 0.00 0.00 54 1100.0
20260505081836 15 136 6.4 9.7 0.00 0.00 0.00 54 1099.9
20260505081333 15 156 4.8 11.3 0.00 0.00 0.00 53 1099.7
20260505080830 15 130 6.4 9.7 0.00 0.00 0.00 53 1099.9
20260505080326 15 133 6.4 16.1 0.00 0.00 0.00 53 1099.9
20260505075821 15 135 8.0 12.9 0.00 0.00 0.00 53 1099.9
20260505075319 15 160 6.4 16.1 0.00 0.00 0.00 53 1099.9
20260505074816 15 134 6.4 12.9 0.00 0.00 0.00 53 1099.9
20260505074313 15 131 4.8 12.9 0.00 0.00 0.00 54 1100.1
20260505073810 15 145 6.4 12.9 0.00 0.00 0.00 54 1100.0
20260505073308 15 133 8.0 12.9 0.00 0.00 0.00 54 1099.7
20260505072805 15 141 4.8 11.3 0.00 0.00 0.00 54 1099.9
20260505072301 15 135 6.4 9.7 0.00 0.00 0.00 54 1099.7
20260505071756 15 134 6.4 9.7 0.00 0.00 0.00 54 1099.9
20260505071253 15 136 8.0 9.7 0.00 0.00 0.00 54 1100.0
20260505070751 15 133 6.4 9.7 0.00 0.00 0.00 54 1099.9
20260505070247 15 143 8.0 12.9 0.00 0.00 0.00 54 1099.9
20260505065743 15 132 6.4 11.3 0.00 0.00 0.00 54 1099.9
20260505065240 15 138 4.8 9.7 0.00 0.00 0.00 54 1100.0
20260505064737 15 134 8.0 11.3 0.00 0.00 0.00 54 1100.0
20260505064235 15 135 8.0 9.7 0.00 0.00 0.00 54 1100.0
20260505063732 15 134 6.4 11.3 0.00 0.00 0.00 54 1100.0
20260505063228 15 135 8.0 12.9 0.00 0.00 0.00 54 1099.9
20260505062725 15 145 9.7 12.9 0.00 0.00 0.00 53 1100.1
20260505062223 16 132 4.8 9.7 0.00 0.00 0.00 54 1100.0
20260505061719 16 133 6.4 9.7 0.00 0.00 0.00 53 1100.0
20260505061217 16 142 9.7 12.9 0.00 0.00 0.00 53 1100.2
20260505060714 15 141 8.0 9.7 0.00 0.00 0.00 53 1100.1
20260505060211 16 139 4.8 9.7 0.00 0.00 0.00 53 1100.0
20260505055706 16 122 4.8 9.7 0.00 0.00 0.00 53 1100.3
20260505055203 16 132 6.4 11.3 0.00 0.00 0.00 52 1100.1
20260505054700 15 133 1.6 4.8 0.00 0.00 0.00 54 1100.2
20260505054158 16 50 3.2 4.8 0.00 0.00 0.00 54 1100.3
20260505053656 16 135 8.0 11.3 0.00 0.00 0.00 53 1100.2
20260505053152 16 134 8.0 12.9 0.00 0.00 0.00 52 1100.4
20260505052649 16 140 8.0 12.9 0.00 0.00 0.00 52 1100.3
20260505052146 16 142 8.0 12.9 0.00 0.00 0.00 52 1100.4
20260505051643 16 119 6.4 11.3 0.00 0.00 0.00 52 1100.3
20260505051142 16 132 4.8 11.3 0.00 0.00 0.00 52 1100.3
20260505050639 16 133 6.4 12.9 0.00 0.00 0.00 52 1100.2
20260505050137 16 142 8.0 12.9 0.00 0.00 0.00 53 1100.2
20260505041607 16 134 8.0 11.3 0.00 0.00 0.00 51 1100.2
20260505041104 16 130 8.0 9.7 0.00 0.00 0.00 51 1100.2
20260505040601 16 148 6.4 9.7 0.00 0.00 0.00 51 1100.0
20260505040058 16 130 1.6 8.0 0.00 0.00 0.00 51 1100.2
20260505035555 16 109 3.2 4.8 0.00 0.00 0.00 51 1100.2
20260505035051 16 101 3.2 8.0 0.00 0.00 0.00 51 1100.3
20260505034548 16 126 6.4 12.9 0.00 0.00 0.00 50 1100.3
20260505034044 16 137 6.4 9.7 0.00 0.00 0.00 50 1100.3